Location: Lafig�re
(44.4503°N, 4.0357°E)
Time: 06:14:40
(UTC+00:00)

Explorer 7 - All Passes

Search period start: 28 January 2021 00:00
Search period end: 07 February 2021 00:00
Orbit: 484 x 678 km, 50.3° (Epoch: 27 January)

Date Brightness Start Highest point End Pass type
(mag) Time Alt. Az. Time Alt. Az. Time Alt. Az.
28 Jan - 01:29:09 10° SSE 01:31:10 14° SE 01:33:14 10° E night (unlit)
28 Jan - 03:07:19 10° WSW 03:11:04 79° SSE 03:14:58 10° ENE visible
28 Jan - 04:48:11 10° W 04:51:48 38° N 04:55:34 10° ENE visible
28 Jan - 06:29:08 10° WNW 06:32:53 39° NNE 06:36:49 10° E visible
28 Jan - 08:09:32 10° WNW 08:13:37 79° SSW 08:17:58 10° SE daylight
28 Jan - 09:50:54 10° W 09:53:42 17° SW 09:56:35 10° S daylight
29 Jan - 01:32:32 10° S 01:35:30 23° SE 01:38:32 10° E night (unlit)
29 Jan - 03:11:54 10° WSW 03:15:39 72° NNW 03:19:32 10° ENE visible
29 Jan - 04:52:58 10° WNW 04:56:31 35° N 05:00:14 10° ENE visible
29 Jan - 06:33:44 10° WNW 06:37:34 47° NNE 06:41:37 10° E visible
29 Jan - 08:14:09 10° WNW 08:18:08 53° SW 08:22:22 10° SE daylight
29 Jan - 09:57:15 10° WSW 09:58:01 10° SW 09:58:46 10° SW daylight
30 Jan - 01:36:28 10° SSW 01:39:54 36° SE 01:43:25 10° ENE night (unlit)
30 Jan - 03:16:34 10° W 03:20:17 53° NNW 03:24:06 10° ENE visible
30 Jan - 04:57:43 10° WNW 05:01:15 34° N 05:04:57 10° ENE visible
30 Jan - 06:38:17 10° WNW 06:42:13 59° NNE 06:46:22 10° ESE daylight
30 Jan - 08:18:52 10° WNW 08:22:36 35° SW 08:26:33 10° SSE daylight
31 Jan - 01:40:42 10° SW 01:44:22 57° SSE 01:48:07 10° ENE night (unlit)
31 Jan - 03:21:20 10° W 03:24:56 42° NNW 03:28:40 10° ENE visible
31 Jan - 05:02:24 10° WNW 05:06:00 35° N 05:09:44 10° ENE visible
31 Jan - 06:42:50 10° WNW 06:46:49 81° NNE 06:51:02 10° ESE daylight
31 Jan - 08:23:46 10° W 08:27:01 23° SW 08:30:24 10° S daylight
01 Feb - 00:06:33 10° S 00:08:55 16° SE 00:11:17 10° E night (unlit)
01 Feb - 01:45:09 10° WSW 01:48:53 87° SSE 01:52:43 10° ENE night (unlit)
01 Feb - 03:26:08 10° WNW 03:29:38 36° N 03:33:17 10° ENE visible
01 Feb - 05:07:01 10° WNW 05:10:42 40° NNE 05:14:32 10° E visible
01 Feb - 06:47:25 10° WNW 06:51:22 71° SSW 06:55:33 10° SE daylight
01 Feb - 08:29:06 10° W 08:31:22 14° SW 08:33:42 10° SSW daylight
02 Feb - 00:10:08 10° SSW 00:13:17 26° SE 00:16:26 10° E night (unlit)
02 Feb - 01:49:45 10° WSW 01:53:28 65° NNW 01:57:17 10° ENE night (unlit)
02 Feb - 03:30:54 10° WNW 03:34:22 33° N 03:37:57 10° ENE visible
02 Feb - 05:11:36 10° WNW 05:15:22 48° NNE 05:19:19 10° E visible
02 Feb - 06:52:03 10° WNW 06:55:52 46° SW 06:59:54 10° SE daylight
03 Feb - 00:14:09 10° SW 00:17:41 41° SE 00:21:15 10° ENE night (unlit)
03 Feb - 01:54:28 10° W 01:58:07 49° NNW 02:01:50 10° ENE night (unlit)
03 Feb - 03:35:37 10° WNW 03:39:06 33° N 03:42:42 10° ENE visible
03 Feb - 05:16:10 10° WNW 05:20:00 64° NNE 05:24:03 10° ESE visible
03 Feb - 06:56:49 10° WNW 07:00:19 30° SW 07:03:59 10° SSE daylight
03 Feb - 22:41:12 10° SSE 22:42:20 11° SE 22:43:28 10° ESE night (unlit)
04 Feb - 00:18:27 10° SW 00:22:10 65° SSE 00:25:54 10° ENE night (unlit)
04 Feb - 01:59:14 10° W 02:02:47 39° NNW 02:06:24 10° ENE night (unlit)
04 Feb - 03:40:17 10° WNW 03:43:49 36° N 03:47:28 10° ENE visible
04 Feb - 05:20:43 10° WNW 05:24:35 88° NNE 05:28:40 10° ESE visible
04 Feb - 07:01:49 10° W 07:04:42 19° SW 07:07:42 10° S daylight
04 Feb - 22:43:59 10° S 22:46:39 18° SE 22:49:18 10° E night (unlit)
05 Feb - 00:22:56 10° WSW 00:26:42 84° NNW 00:30:29 10° ENE night (unlit)
05 Feb - 02:04:01 10° WNW 02:07:29 35° N 02:11:01 10° ENE night (unlit)
05 Feb - 03:44:54 10° WNW 03:48:31 41° NNE 03:52:15 10° E visible
05 Feb - 05:25:18 10° WNW 05:29:07 63° SSW 05:33:09 10° SE visible
05 Feb - 07:07:30 10° WSW 07:09:02 12° SW 07:10:37 10° SSW daylight
05 Feb - 22:47:42 10° SSW 22:51:02 29° SE 22:54:20 10° E night (unlit)
06 Feb - 00:27:34 10° WSW 00:31:18 60° NNW 00:35:02 10° ENE night (unlit)
06 Feb - 02:08:47 10° WNW 02:12:12 33° N 02:15:42 10° ENE night (unlit)
06 Feb - 03:49:28 10° WNW 03:53:11 51° NNE 03:57:02 10° E visible
06 Feb - 05:29:58 10° WNW 05:33:36 40° SW 05:37:25 10° SSE visible
06 Feb - 22:51:48 10° SW 22:55:28 46° SE 22:59:05 10° ENE night (unlit)
